Cahokia, IL

11:23 PM CST on November 20, 2019 (GMT -0600)
Saint Louis Downtown

Weather History for KCPS - October, 2019

Change the Weather History Date:

Monday, October 21, 2019

  Actual Average Record
Temperature  
Mean Temperature 62 °F -  
Max Temperature 69 °F 68 °F 85 °F (1953)
Min Temperature 53 °F 45 °F 28 °F (2018)
Degree Days  
Heating Degree Days 4    
Growing Degree Days 12 (Base 50)    
Moisture  
Dew Point 51 °F    
Average Humidity 68    
Maximum Humidity 90    
Minimum Humidity 37    
Precipitation  
Precipitation 0.23 in - - ()
Sea Level Pressure  
Sea Level Pressure 29.60 in    
Wind  
Wind Speed 12 mph (SSW)    
Max Wind Speed 20 mph    
Max Gust Speed 44 mph    
Visibility 10 miles    
Events Rain , Thunderstorm    
Averages and records for this station are not official NWS values.
T = Trace of Precipitation, MM = Missing Value Source: NWS Daily Summary

Daily Weather History Graph

Daily Weather History Graph

Search for Another Location

Airport or City:

Astronomy

Oct. 21, 2019 Rise Set
Actual Time 7:15 AM CDT 6:14 PM CDT
Civil Twilight 6:48 AM CDT 6:41 PM CDT
Nautical Twilight 6:17 AM CDT 7:12 PM CDT
Astronomical Twilight 5:46 AM CDT 7:42 PM CDT
Moon No Moon Rise 2:31 PM CDT
Length of Visible Light 11h 52m
Length of Day
10h 58m
Waning Gibbous, 48% of the Moon is Illuminated
Oct 21
Waning Gibbous
Oct 27
New
Nov 4
First Quarter
Nov 12
Full
Nov 19
Last Quarter

Hourly Weather History & Observations

Time (CDT) Temp. Dew Point Humidity Pressure Visibility Wind Dir Wind Speed Gust Speed Precip Events Conditions
12:53 AM 60.1 °F 52.0 °F 75% 29.68 in 10.0 mi SE 9.2 mph - N/A   Clear
1:53 AM 62.1 °F 54.0 °F 75% 29.65 in 10.0 mi SE 12.7 mph 18.4 mph N/A   Clear
2:36 AM 63.0 °F 55.0 °F 75% 29.60 in 10.0 mi SE 12.7 mph - N/A   Mostly Cloudy
2:53 AM 63.0 °F 55.9 °F 78% 29.58 in 10.0 mi SE 13.8 mph - N/A   Overcast
3:53 AM 63.0 °F 57.0 °F 81% 29.54 in 10.0 mi SE 13.8 mph - 0.00 in Rain , Thunderstorm Light Thunderstorms and Rain
4:17 AM 62.1 °F 57.9 °F 86% 29.52 in 5.0 mi SE 16.1 mph - 0.12 in Rain , Thunderstorm Light Thunderstorms and Rain
4:32 AM 62.1 °F 59.0 °F 90% 29.51 in 6.0 mi SE 15.0 mph 27.6 mph 0.16 in Rain , Thunderstorm Rain
4:53 AM 62.1 °F 59.0 °F 90% 29.51 in 6.0 mi South 12.7 mph 23.0 mph 0.21 in Rain , Thunderstorm Rain
5:02 AM 63.0 °F 60.1 °F 90% 29.52 in 8.0 mi South 16.1 mph 43.7 mph 0.01 in Rain Light Rain
5:53 AM 64.0 °F 61.0 °F 90% 29.47 in 10.0 mi SSE 10.4 mph - 0.02 in   Scattered Clouds
6:53 AM 63.0 °F 60.1 °F 90% 29.51 in 10.0 mi South 15.0 mph 24.2 mph N/A   Overcast
7:53 AM 63.0 °F 59.0 °F 87% 29.51 in 10.0 mi SSE 12.7 mph 18.4 mph N/A   Clear
8:53 AM 63.0 °F 57.9 °F 84% 29.52 in 10.0 mi SSW 9.2 mph 18.4 mph N/A   Clear
9:53 AM 63.0 °F 57.0 °F 81% 29.54 in 10.0 mi SSW 13.8 mph 23.0 mph N/A   Mostly Cloudy
10:53 AM 64.0 °F 57.9 °F 80% 29.55 in 10.0 mi SSW 9.2 mph 17.3 mph N/A   Mostly Cloudy
11:46 AM 64.9 °F 55.9 °F 73% 29.56 in 10.0 mi SW 9.2 mph 19.6 mph N/A   Mostly Cloudy
11:53 AM 66.9 °F 57.0 °F 70% 29.56 in 10.0 mi SW 9.2 mph 20.7 mph N/A   Overcast
12:30 PM 66.9 °F 54.0 °F 63% 29.58 in 10.0 mi WSW 12.7 mph 21.9 mph N/A   Overcast
12:53 PM 66.9 °F 52.0 °F 59% 29.57 in 10.0 mi West 13.8 mph 24.2 mph N/A   Scattered Clouds
1:53 PM 66.9 °F 42.1 °F 40% 29.57 in 10.0 mi WSW 13.8 mph 27.6 mph N/A   Clear
2:53 PM 69.1 °F 42.1 °F 38% 29.56 in 10.0 mi SW 11.5 mph 21.9 mph N/A   Clear
3:53 PM 68.0 °F 41.0 °F 37% 29.59 in 10.0 mi WSW 15.0 mph 25.3 mph N/A   Clear
4:53 PM 66.0 °F 39.9 °F 38% 29.62 in 10.0 mi WSW 19.6 mph 34.5 mph N/A   Clear
5:53 PM 64.0 °F 39.9 °F 41% 29.65 in 10.0 mi WSW 11.5 mph 21.9 mph N/A   Clear
6:53 PM 60.1 °F 41.0 °F 49% 29.70 in 10.0 mi West 11.5 mph - N/A   Clear
7:53 PM 59.0 °F 39.9 °F 49% 29.72 in 10.0 mi Variable 5.8 mph - N/A   Clear
8:53 PM 57.0 °F 39.9 °F 53% 29.71 in 10.0 mi Variable 3.5 mph - N/A   Clear
9:53 PM 55.9 °F 39.9 °F 55% 29.74 in 10.0 mi WSW 5.8 mph - N/A   Clear
10:53 PM 54.0 °F 39.9 °F 59% 29.76 in 10.0 mi SSW 4.6 mph - N/A   Partly Cloudy
11:53 PM 53.1 °F 39.9 °F 61% 29.76 in 10.0 mi North - - N/A   Clear